Fairbanks Eiels, AK

10:47 PM AKST on December 08, 2019 (GMT -0900)
Eielson Air Force Base

Weather History for PAEI - October, 2019

Change the Weather History Date:

Friday, October 25, 2019

  Actual Average Record
Temperature  
Mean Temperature 28 °F -  
Max Temperature 30 °F 22 °F 50 °F (2002)
Min Temperature 25 °F 9 °F -25 °F (1996)
Degree Days  
Heating Degree Days 38    
Moisture  
Dew Point 24 °F    
Average Humidity 87    
Maximum Humidity 93    
Minimum Humidity 78    
Precipitation  
Precipitation 0.00 in - - ()
Snow  
Snow 0.00 in - - ()
Snow Depth 3.00 in    
Sea Level Pressure  
Sea Level Pressure 30.04 in    
Wind  
Wind Speed 4 mph (SSW)    
Max Wind Speed 7 mph    
Max Gust Speed -    
Visibility 6 miles    
Events Snow    
Averages and records for this station are not official NWS values.
T = Trace of Precipitation, MM = Missing Value Source: NWS Daily Summary

Daily Weather History Graph

Daily Weather History Graph

Search for Another Location

Airport or City:

Astronomy

Oct. 25, 2019 Rise Set
Actual Time 9:11 AM AKDT 5:51 PM AKDT
Civil Twilight 8:19 AM AKDT 6:43 PM AKDT
Nautical Twilight 7:22 AM AKDT 7:40 PM AKDT
Astronomical Twilight 6:26 AM AKDT 8:36 PM AKDT
Moon 4:29 AM AKDT (10/25) 6:18 PM AKDT (10/25)
Length of Visible Light 10h 23m
Length of Day
8h 39m
Waning Crescent, 8% of the Moon is Illuminated
Oct 25
Waning Crescent
Oct 27
New
Nov 4
First Quarter
Nov 12
Full
Nov 19
Last Quarter

Hourly Weather History & Observations

Time (AKDT) Temp. Windchill Dew Point Humidity Pressure Visibility Wind Dir Wind Speed Gust Speed Precip Events Conditions
12:56 AM 27.0 °F 21.6 °F 21.9 °F 81% 29.71 in 10.0 mi South 4.6 mph - N/A   Overcast
1:02 AM 26.6 °F 22.6 °F 21.2 °F 80% 29.72 in 10.0 mi Variable 3.5 mph - N/A   Overcast
1:46 AM 26.6 °F 21.2 °F 21.2 °F 80% 29.75 in 6.0 mi Variable 4.6 mph - N/A Snow Light Snow
1:52 AM 26.6 °F 22.6 °F 21.2 °F 80% 29.75 in 10.0 mi South 3.5 mph - N/A Snow Light Snow
1:56 AM 27.0 °F 23.0 °F 21.9 °F 81% 29.76 in 2.8 mi SSE 3.5 mph - 0.00 in Snow Light Snow
2:12 AM 26.6 °F 21.2 °F 23.0 °F 86% 29.77 in 2.0 mi South 4.6 mph - N/A Snow Light Snow
2:53 AM 26.8 °F 21.4 °F 23.4 °F 87% 29.80 in 4.0 mi South 4.6 mph - 0.00 in Snow Light Snow
3:09 AM 26.6 °F 21.2 °F 24.8 °F 93% 29.82 in 2.2 mi Variable 4.6 mph - N/A Snow Light Snow
3:14 AM 26.6 °F 21.2 °F 24.8 °F 93% 29.82 in 0.8 mi Variable 4.6 mph - N/A Snow Light Snow
3:35 AM 26.6 °F 22.6 °F 24.8 °F 93% 29.83 in 1.0 mi South 3.5 mph - N/A Snow Light Snow
3:50 AM 26.6 °F 21.2 °F 24.8 °F 93% 29.84 in 1.1 mi South 4.6 mph - N/A Snow Light Snow
3:56 AM 27.0 °F 21.6 °F 24.4 °F 90% 29.84 in 1.2 mi South 4.6 mph - 0.00 in Snow Light Snow
4:11 AM 26.6 °F 21.2 °F 24.8 °F 93% 29.86 in 1.9 mi South 4.6 mph - N/A Snow Light Snow
4:39 AM 26.6 °F 21.2 °F 24.8 °F 93% 29.88 in 1.0 mi Variable 4.6 mph - N/A Snow Light Snow
4:56 AM 27.3 °F 22.0 °F 24.8 °F 90% 29.89 in 1.1 mi SSE 4.6 mph - 0.00 in Snow Light Snow
5:55 AM 28.4 °F - 25.3 °F 88% 29.65 in 1.0 mi Calm Calm - 0.00 in Snow Light Snow
6:12 AM 28.4 °F 24.6 °F 26.6 °F 93% 29.95 in 1.0 mi Variable 3.5 mph - N/A Snow Light Snow
6:24 AM 28.4 °F - 26.6 °F 93% 29.96 in 3.0 mi Calm Calm - N/A Snow Light Snow
6:38 AM 28.4 °F - 26.6 °F 93% 29.97 in 3.0 mi Calm Calm - N/A Snow Light Snow
6:56 AM 29.3 °F 24.3 °F 26.2 °F 88% 29.99 in 3.0 mi SSW 4.6 mph - 0.00 in Snow Light Snow
7:55 AM 30.2 °F - 26.6 °F 86% 30.04 in 3.0 mi Calm Calm - N/A Snow Light Snow
7:56 AM 29.3 °F 25.6 °F 26.2 °F 88% 30.04 in 3.0 mi WSW 3.5 mph - 0.00 in Snow Light Snow
8:52 AM 30.2 °F 25.4 °F 26.6 °F 86% 30.07 in 2.0 mi SSW 4.6 mph - N/A Snow Light Snow
8:56 AM 29.3 °F 24.3 °F 26.4 °F 89% 30.07 in 2.0 mi SSW 4.6 mph - 0.00 in Snow Light Snow
9:11 AM 30.2 °F 26.7 °F 26.6 °F 86% 30.09 in 3.0 mi South 3.5 mph - N/A Snow Light Snow
9:41 AM 28.4 °F 24.6 °F 26.6 °F 93% 30.11 in 7.0 mi South 3.5 mph - N/A Snow Light Snow
9:56 AM 29.3 °F 25.6 °F 26.2 °F 88% 30.12 in 3.0 mi SSW 3.5 mph - 0.00 in Snow Light Snow
10:56 AM 30.0 °F 25.2 °F 26.6 °F 87% 30.17 in 10.0 mi SW 4.6 mph - 0.00 in   Overcast
11:37 AM 30.2 °F 25.4 °F 26.6 °F 86% 30.19 in 10.0 mi Variable 4.6 mph - N/A   Overcast
11:56 AM 30.6 °F 23.8 °F 26.1 °F 83% 30.20 in 10.0 mi South 6.9 mph - N/A   Overcast
1:56 PM 30.6 °F 23.8 °F 24.4 °F 78% 30.30 in 10.0 mi West 6.9 mph - 0.00 in   Mostly Cloudy
2:27 PM 30.2 °F 25.4 °F 24.8 °F 80% 30.32 in 10.0 mi SSW 4.6 mph - N/A   Overcast
2:56 PM 30.0 °F - 24.3 °F 79% 30.32 in 10.0 mi Calm Calm - N/A   Mostly Cloudy
3:56 PM 25.9 °F - 21.7 °F 84% 30.36 in 10.0 mi Calm Calm - N/A   Mostly Cloudy
4:56 PM 25.2 °F - 21.2 °F 85% 30.38 in 10.0 mi Calm Calm - N/A   Mostly Cloudy
6:41 PM 26.6 °F 22.6 °F 23.0 °F 86% 30.43 in 10.0 mi South 3.5 mph - N/A   Mostly Cloudy
6:56 PM 27.3 °F - 22.8 °F 83% 30.43 in 10.0 mi Calm Calm - N/A   Mostly Cloudy
8:56 PM 26.1 °F 21.9 °F 22.5 °F 86% 30.48 in 10.0 mi SSE 3.5 mph - N/A   Mostly Cloudy
9:56 PM 26.6 °F - 23.0 °F 86% 30.49 in 10.0 mi Calm Calm - N/A   Mostly Cloudy
11:56 PM 27.0 °F - 23.4 °F 86% 30.50 in 10.0 mi Calm Calm - N/A   Overcast